Location: Lango�lan
(48.1202°N, 3.2340°W)
Time: 02:54:18
(UTC+00:00)

USA 267 - Pass Details

Date: 23 October 2019
Orbit: 1101 x 1106 km, 123.0° (Epoch: 12 November)

Event Time Altitude Azimuth Distance (km) Brightness Sun altitude
Rises 03:58:48 0° 54° (NE) 3,926 7.2 -28.0°
Reaches altitude 10° 04:01:17 10° 56° (NE) 2,966 6.4 -27.6°
Maximum altitude 04:07:51 79° 143° (SE) 1,126 3.2 -26.5°
Enters shadow 04:09:42 51° 219° (SW) 1,369 3.4 -26.2°
